Starlink 30773

operational
NORAD ID: 58161 Int'l Des: 2023-166 Owner: SPXS Country: US Constellation: starlink
LEOCIRCULAR

关于 Starlink 30773

正在加载描述...

实时位置

正在加载3D地球...

即将过境

高度历史

Altitude vs Time

uPlot chart will show altitude changes over time

两行轨道根数

1 58161U 23166M 26034.22921556 .00002629 00000-0 10084-3 0 9991
2 58161 53.1640 19.6330 0001774 83.0978 277.0225 15.30204504127906
Epoch: Feb 3, 2026 • Age: 9 hours

当前状态

高度 475.8 km
速度 7.63 km/s
星下点 0.96°N, 21.06°E
发射日期 Oct 29, 2023
运行时间 2.2 years
类型 internet

技术详情

分类 Payload
质量 730.00 kg
干质量 700.00 kg
总质量 730.00 kg
长度 0.30 m
直径 4.10 m
跨度 29.00 m
形状 Box + pan
制造商 SPXS
平台类型 Starlink V2M
阶段状态 In Orbit
所有者/国家 SPXS/US

大型星座

Loading constellations...